Regional Weather Roundup
Issued by NWS

Home | Current Version | Previous Version | Graphics & Text | Print | Product List | Glossary Off
Versions: 1 2 3 4 5 6 7 8 9 10 11 12 13 14 15 16 17 18 19 20 21 22 23 24 25 26 27 28 29 30 31 32 33 34 35 36 37 38 39 40 41 42 43 44 45 46 47 48 49 50

000
ASUS43 KMKX 012121
RWRWI

WISCONSIN REGIONAL WEATHER ROUNDUP
NATIONAL WEATHER SERVICE MILWAUKEE/SULLIVAN WI
400 PM CDT MON SEP 01 2014

NOTE: "FAIR" INDICATES FEW OR NO CLOUDS BELOW 12,000 FEET WITH NO
SIGNIFICANT WEATHER AND/OR OBSTRUCTIONS TO VISIBILITY.

WIZ001-002-006>008-014>016-023>028-012200-
NORTHWEST WISCONSIN

CITY           SKY/WX    TMP DP  RH WIND       PRES   REMARKS
SUPERIOR ARPT  MOSUNNY   74  56  53 W10G21    29.67R
ASHLAND        MOSUNNY   72  56  57 W12G21    29.67R
HAYWARD        MOSUNNY   71  56  58 W9        29.70R
SIREN          SUNNY     73  49  43 NW16      29.73R
RICE LAKE      MOSUNNY   73  53  50 W9G17     29.74R
LADYSMITH      MOSUNNY   73  57  56 W16       29.72S
EAU CLAIRE     MOSUNNY   76  56  49 W15G25    29.72R
MENOMONIE      PTCLDY    74  56  53 W14G22    29.73R
NEW RICHMOND   MOSUNNY   75  53  47 W13G18    29.75R
OSCEOLA        MOSUNNY   74  55  51 NW8G20    29.77R
$$

WIZ003>005-009-010-017-018-012200-
NORTH CENTRAL WISCONSIN

CITY           SKY/WX    TMP DP  RH WIND       PRES   REMARKS
WOODRUFF       MOSUNNY   72  60  65 W14       29.68R
RHINELANDER    SUNNY     71  57  61 W14G20    29.68S
EAGLE RIVER    PTSUNNY   70  57  64 W13       29.67R
LAND O LAKES   MOSUNNY   69  61  74 W7        29.68R
PHILLIPS       MOSUNNY   71  55  56 W8        29.69S
TOMAHAWK       MOSUNNY   70  58  67 W10       29.69R
MEDFORD        MOSUNNY   71  58  62 W13G22    29.70S
MERRILL        MOSUNNY   74  59  59 NW12      29.68S
$$

WIZ029-030-035-036-043>047-012200-
CENTRAL WISCONSIN

CITY           SKY/WX    TMP DP  RH WIND       PRES   REMARKS
WAUSAU         PTSUNNY   74  62  66 W12G21    29.67S
MOSINEE        PTSUNNY   73  63  68 W13G20    29.70S
MARSHFIELD     MOSUNNY   74  62  66 W14       29.70R
STEVENS POINT  PTSUNNY   72  60  66 W10G18    29.69S
WAUPACA        LGT RAIN  75  65  71 W9        29.68S
WAUTOMA        PTSUNNY   71  67  87 W13       29.71R FOG
WISC RAPIDS    PTSUNNY   75  62  64 W17G23    29.71S
CAMP DOUGLAS   PTSUNNY   71  69  94 W10       29.73S
$$

WIZ011>013-019>022-031-037>040-048>050-012200-
NORTHEAST WISCONSIN

CITY           SKY/WX    TMP DP  RH WIND       PRES   REMARKS
ANTIGO         PTSUNNY   71  62  74 W10G16    29.68S
STURGEON BAY   CLOUDY    72  64  78 SW14G23   29.66S
GREEN BAY      CLOUDY    73  66  78 SW10G21   29.67S
MANITOWOC      CLOUDY    74  65  73 W15       29.68S
APPLETON       PTSUNNY   73  64  73 W16       29.69F
CLINTONVILLE   PTSUNNY   73  63  68 W10G16    29.66S
OSHKOSH        MOSUNNY   75  66  73 SW10G20   29.68F
$$

WIZ032>034-041-042-053>061-012200-
SOUTHWEST WISCONSIN

CITY           SKY/WX    TMP DP  RH WIND       PRES   REMARKS
LA CROSSE      SUNNY     78  64  61 VRB6      29.72S HX  80
SPARTA         MOSUNNY   74  61  63 W9        29.74R
VIROQUA        MOCLDY    73  62  68 NW9       29.76R
BOSCOBEL       PTSUNNY   80  64  58 W12       29.74R HX  82
PRAIRIE DU CHI SUNNY     79  58  47 W9        29.75R HX  80
PLATTEVILLE    FAIR      78  67  70 SW10G18   29.77R HX  80
$$

WIZ056-057-062-063-064-067-068-012200-
SOUTH CENTRAL WISCONSIN

CITY           SKY/WX    TMP DP  RH WIND       PRES   REMARKS
BARABOO/DELLS  MOSUNNY   78  62  56 W9G17     29.72S HX  80
LONE ROCK      MOSUNNY   81  65  58 W15G23    29.72S HX  83
WATERTOWN      PTSUNNY   77  64  65 W13G24    29.72R
MADISON        PTSUNNY   77  64  64 W8        29.73S
MIDDLETON      CLOUDY    72  65  79 W15       29.75R
MONROE         PTSUNNY   79  64  61 SW15G22   29.75S HX  81
JANESVILLE     PTSUNNY   82  63  51 W17G23    29.73S HX  83
$$

WIZ051-052-058>065-066-070>072-012200-
SOUTHEAST WISCONSIN

CITY           SKY/WX    TMP DP  RH WIND       PRES   REMARKS
MILWAUKEE      MOSUNNY   81  63  54 W16       29.71S HX  82
WAUKESHA       PTSUNNY   75  63  64 SW15G23   29.73S
MILWAUKEE/TIMM PTSUNNY   79  61  53 SW16G28   29.72S HX  80
RACINE         MOSUNNY   82  63  52 W15G24    29.73S HX  83
BURLINGTON     MOSUNNY   79  64  59 W14G20    29.74R HX  80
KENOSHA        MOSUNNY   81  65  58 W20G28    29.73S HX  83
FOND DU LAC    PTSUNNY   75  65  70 SW15G21   29.70S
SHEBOYGAN      CLOUDY    75  64  68 W18G24    29.70R
WEST BEND      CLOUDY    75  63  64 W12       29.71S
JUNEAU         CLOUDY    74  65  75 W12G18    29.73S
$$

LSZ147-162-012200-
LAKE SUPERIOR

STATION/POSITION TIME  TEMP    WIND        PRES    WAVE
                       AIR SEA DIR/SP/G            HT/PER
                 (UTC) (F)     (DEG/KT/KT) (MB)    (FT/S)
W MID LAKE BUOY  2050   61 57  250/ 14/ 16 1002.1R   2/ 4
DEVILS ISLAND    2100   65     240/ 16/ 18 1003.4R
PORT WING        2000   68     250/ 12/ 17 1004.7R
SAXON HARBOR     2040   69     310/  8/ 13 1004.4R
$$

LMZ867-665-643>646-012200-
LAKE MICHIGAN

STATION/POSITION TIME  TEMP    WIND        PRES    WAVE
                       AIR SEA DIR/SP/G            HT/PER
                 (UTC) (F)     (DEG/KT/KT) (MB)    (FT/S)
N MID LAKE BUOY  2050   67 65  230/ 12/ 14 1003.1R   3/ 5
NORTHPORT PIER   2000   72     230/  8/ 17 1003.4S
KEWAUNEE LAKESHO 2100   73     250/  9/ 18 1003.8R
SHEBOYGAN LAKESH 2100   75 57  270/ 17/ 19 1005.4R
ATWATER BUOY     2100   73     250/ 16/ 21 1006.8F
MILWAUKEE LAKESH 2100   79     270/ 17/ 26   N/A
S MID LAKE BUOY  2050   73 70  210/ 12/ 14 1006.4F   2/ 4
KENOSHA   LAKESH 2100   82     240/ 10/ 23 1006.4S
$$

TC  - TEMPERATURE IN CELSIUS
VSB - VISIBILITY IN STATUTE MILES
WCI - WIND CHILL INDEX
HX  - HEAT INDEX



USA.gov is the U.S. government's official web portal to all federal, state and local government web resources and services.